This demonstration page uses our WeatherBlox Daily Observations layout. Learn more.

Left ArrowRight Arrow

39.01783, -85.05884

Hourly Observations for December 1, 2020

Temp ( °F °C ) Dew Point ( °F °C ) Humidity (%) Winds ( mph kmh ) Pressure ( in mb ) Visibility ( mi km ) Precip ( " mm )
12:06 am 00:06 Cloudy with Light Snow 30 -1.1 27 -2.8 88 88 WNW 16 26 29.90 1013 1 2 0.00 0.00
12:18 am 00:18 Cloudy with Light Snow 30 -1.1 27 -2.8 88 88 WNW 18 30 29.90 1013 1 2 0.00 0.00
12:52 am 00:52 Cloudy with Light Snow 30 -1.1 27 -2.8 88 88 WNW 16 26 29.86 1011 1 2 0.01 0.25
1:21 am 01:21 Cloudy with Light Snow 30 -1.1 26 -3.3 85 85 WNW 15 24 29.90 1013 1 2 0.00 0.00
1:52 am 01:52 Cloudy with Light Snow 30 -1.1 26 -3.3 85 85 W 18 30 29.87 1011 1 2 0.01 0.25
2:52 am 02:52 Cloudy with Light Snow 30 -1.1 26 -3.3 85 85 WNW 17 28 29.88 1012 1 2 0.00 0.00
3:52 am 03:52 Cloudy with Light Wintry Mix 29 -1.7 25 -3.9 85 85 WNW 18 30 29.90 1013 9 14 0.00 0.00
4:52 am 04:52 Cloudy 29 -1.7 25 -3.9 85 85 WNW 20 31 29.91 1013 7 11 0.00 0.00
5:52 am 05:52 Cloudy with Mist and Fog 29 -1.7 25 -3.9 85 85 WNW 18 30 29.92 1013 6 10 0.00 0.00
6:11 am 06:11 Cloudy 29 -1.7 25 -3.9 85 85 WNW 15 24 29.96 1015 10 16 N/A
6:52 am 06:52 Cloudy 29 -1.7 25 -3.9 85 85 W 12 19 29.94 1014 10 16 N/A
7:52 am 07:52 Cloudy 30 -1.1 24 -4.4 79 79 W 16 26 29.96 1015 10 16 N/A
8:52 am 08:52 Cloudy 30 -1.1 24 -4.4 79 79 W 12 19 29.98 1015 10 16 N/A
9:52 am 09:52 Cloudy with Light Snow 30 -1.1 24 -4.4 79 79 W 16 26 29.99 1016 10 16 0.00 0.00
10:52 am 10:52 Cloudy with Light Snow 30 -1.1 24 -4.4 79 79 W 17 28 30.01 1016 10 16 0.00 0.00
11:52 am 11:52 Cloudy 30 -1.1 23 -5 75 75 W 15 24 30.01 1016 10 16 0.00 0.00
12:52 pm 12:52 Cloudy 30 -1.1 23 -5 75 75 W 17 28 30.00 1016 10 16 N/A
1:52 pm 13:52 Cloudy 30 -1.1 23 -5 75 75 W 17 28 30.01 1016 10 16 N/A
1:59 pm 13:59 Cloudy 31 -0.6 23 -5 72 72 W 15 24 30.04 1017 10 16 N/A
2:52 pm 14:52 Cloudy 31 -0.6 22 -5.6 69 69 W 17 28 30.01 1016 10 16 N/A
3:03 pm 15:03 Cloudy 31 -0.6 23 -5 72 72 WSW 9 15 30.05 1018 10 16 N/A
3:52 pm 15:52 Cloudy 32 undefined 22 -5.6 66 66 W 14 22 30.03 1017 10 16 N/A
4:52 pm 16:52 Cloudy 32 undefined 21 -6.1 64 64 WSW 12 19 30.05 1018 10 16 N/A
5:52 pm 17:52 Cloudy 31 -0.6 22 -5.6 69 69 WSW 12 19 30.07 1018 10 16 N/A
6:52 pm 18:52 Cloudy 32 undefined 21 -6.1 64 64 W 14 22 30.10 1019 10 16 N/A
7:52 pm 19:52 Mostly Clear 29 -1.7 20 -6.7 69 69 W 10 17 30.13 1020 10 16 N/A
8:52 pm 20:52 Mostly Clear 28 -2.2 19 -7.2 69 69 W 9 15 30.15 1021 10 16 N/A
9:52 pm 21:52 Mostly Cloudy 28 -2.2 20 -6.7 72 72 W 10 17 30.16 1021 10 16 N/A
10:52 pm 22:52 Mostly Cloudy 28 -2.2 20 -6.7 72 72 W 10 17 30.17 1022 10 16 N/A
11:52 pm 23:52 Mostly Cloudy 28 -2.2 20 -6.7 72 72 W 7 11 30.19 1022 10 16 N/A

Powered by AerisWeather